Temp
10 11 11 11 11 11 11 11 12 12 12 12 12 12 12 12 13 12 13 12 12 12 12 12 11 11 11 11 11 11 11 11 10 10 10 10 11 10 11 11 10 10 10 9 9
10 10 10 11 11 11 11 11 11 12 12 12 12 12 12 12 12 12 12 12 12 12 12 11 11 11 11 11 10 10 10 10 10 10 10 11 11 11 10 10 10 10 9 9 9
10 10 10 10 11 11 11 11 11 11 12 12 12 12 12 12 12 12 12 11 11 11 11 11 11 11 11 11 11 10 10 10 10 10 11 11 10 10 10 11 11 10 11 10 9
10 10 10 10 11 11 11 11 11 11 12 12 12 12 12 12 12 11 11 11 11 10 10 10 10 10 10 9 9 10 10 10 10 10 10 10 10 10 10 10 10 9 10 10 9
9 9 10 10 10 11 11 11 11 11 12 12 12 12 12 12 12 11 11 11 11 11 10 10 10 10 10 9 9 9 9 9 9 9 9 10 10 9 11 10 9 9 9 9 8
9 9 9 10 10 10 10 11 11 11 11 11 11 11 11 11 11 11 11 11 11 11 10 10 10 10 9 10 9 9 9 9 9 10 9 10 10 9 10 9 9 9 8 8 7
9 9 9 9 10 10 10 10 10 11 11 11 11 11 11 11 11 11 11 11 11 10 10 10 10 9 10 9 9 9 9 10 10 10 9 9 8 9 8 9 8 8 8 8 7
9 9 9 9 9 9 10 10 10 10 10 10 10 11 11 10 10 11 10 10 11 10 10 10 10 9 9 9 9 9 8 8 9 8 8 7 8 8 8 8 8 7 7 7 7
9 9 9 9 9 9 9 10 10 10 10 10 11 11 11 10 10 10 10 10 10 10 9 9 9 9 9 8 8 8 7 8 8 8 8 7 7 7 7 7 7 7 6 6 6
8 8 8 8 8 8 8 9 10 10 10 10 10 11 11 10 10 10 10 10 10 9 9 8 9 8 8 6 6 6 7 7 8 8 8 8 8 7 7 7 6 6 6 6 6
8 8 8 8 8 9 9 9 10 11 11 11 11 11 10 10 9 9 9 9 8 8 8 7 8 8 6 6 6 6 7 7 7 7 6 6 6 6 6 6 6 6 6 6 5
8 8 8 8 8 8 9 9 10 9 10 11 10 9 9 9 9 9 9 9 9 8 7 7 7 7 6 6 6 6 6 6 6 5 5 5 5 5 6 6 6 6 5 6 5
8 8 8 8 8 9 9 9 9 9 10 10 9 8 8 8 8 8 8 8 7 7 7 6 8 7 6 6 5 5 5 4 4 4 4 4 5 4 4 5 5 5 5 5 5
7 7 7 7 7 8 8 8 8 9 10 8 8 7 7 7 7 7 7 7 7 6 6 6 6 5 5 4 4 4 4 3 4 3 3 3 2 3 3 4 3 4 4 4 4
7 7 7 7 7 7 7 8 8 8 6 7 7 7 7 7 7 6 6 7 7 6 5 5 4 4 3 3 3 3 3 3 3 3 2 2 2 2 3 3 3 2 2 3 2
6 7 6 6 7 7 7 7 8 8 7 7 7 7 7 7 6 5 5 5 4 4 4 3 2 3 3 2 2 2 2 2 2 2 -1 2 2 2 2 2 1 -0 -0 1 1
6 6 6 6 6 6 6 7 7 7 6 5 5 6 6 5 5 5 3 3 2 1 1 1 2 2 2 2 1 1 0 -1 -1 -1 -1 1 0 1 1 1 1 1 0 0 0
5 5 6 5 5 6 6 6 6 6 6 4 4 4 4 4 3 2 2 1 1 1 1 1 1 2 1 -0 -2 -1 -1 -1 -3 -3 -2 -1 -1 0 -1 -1 -3 -3 -3 -3 -2
5 5 6 5 5 6 5 4 4 4 5 4 5 4 3 2 1 1 1 1 0 -1 -1 -1 -0 0 -0 -1 -1 -1 -2 -2 -2 -2 -3 -2 -1 -3 -3 -3 -4 -5 -5 -5 -5
4 5 5 5 5 4 4 3 2 2 2 2 1 1 0 0 0 0 -0 0 -1 -1 -2 -2 -3 -3 -3 -3 -3 -2 -3 -3 -3 -5 -5 -3 -2 -2 -4 -4 -4 -6 -6 -6 -3
4 4 4 4 3 3 2 0 -0 -0 1 0 -1 -1 -1 -2 -3 -3 -2 -2 -2 -2 -3 -3 -4 -3 -3 -4 -4 -3 -3 -3 -3 -5 -5 -5 -3 -4 -4 -6 -6 -6 -6 -7 -5
3 3 3 3 2 1 0 -1 -1 -1 -1 -2 -2 -3 -4 -4 -4 -4 -4 -4 -4 -4 -4 -5 -5 -5 -5 -4 -4 -4 -4 -5 -5 -5 -5 -6 -5 -5 -6 -6 -7 -8 -7 -7 -7
2 2 2 2 1 -0 -1 -2 -2 -1 -2 -2 -3 -4 -4 -5 -5 -5 -5 -4 -5 -5 -5 -6 -6 -7 -6 -5 -5 -5 -5 -6 -6 -6 -7 -7 -6 -5 -6 -7 -8 -7 -7 -7 -7
2 1 1 0 -0 -1 -1 -2 -3 -4 -4 -4 -4 -5 -5 -6 -6 -6 -6 -6 -6 -6 -6 -7 -7 -7 -7 -7 -7 -7 -6 -7 -7 -7 -7 -6 -6 -6 -6 -7 -7 -7 -7 -7 -7
0 -1 -1 -1 -2 -2 -2 -3 -3 -4 -5 -5 -6 -6 -7 -7 -7 -7 -6 -6 -6 -6 -7 -7 -7 -7 -7 -8 -7 -7 -7 -6 -7 -6 -7 -6 -7 -6 -6 -7 -7 -7 -7 -7 -7
-1 -1 -2 -2 -2 -3 -3 -4 -5 -6 -7 -7 -8 -8 -8 -8 -8 -8 -8 -8 -8 -7 -8 -8 -8 -8 -8 -7 -7 -7 -7 -6 -6 -6 -7 -6 -6 -6 -6 -7 -7 -7 -7 -7 -7
-1 -2 -3 -3 -3 -4 -4 -5 -6 -8 -8 -8 -8 -9 -8 -8 -8 -8 -8 -8 -8 -8 -8 -8 -9 -9 -9 -8 -7 -7 -6 -6 -6 -6 -5 -6 -6 -6 -6 -7 -7 -7 -8 -8 -8
Height
3170 3169 3168 3167 3166 3164 3163 3162 3161 3159 3158 3157 3156 3155 3153 3152 3151 3151 3150 3150 3149 3149 3148 3149 3149 3149 3149 3149 3149 3149 3151 3152 3152 3153 3152 3151 3152 3150 3149 3151 3151 3151 3153 3149 3147
3169 3168 3167 3166 3165 3164 3163 3161 3160 3158 3157 3156 3155 3153 3152 3150 3150 3149 3149 3148 3148 3148 3148 3148 3148 3147 3148 3148 3148 3148 3150 3150 3150 3150 3150 3150 3149 3149 3148 3147 3148 3147 3148 3145 3143
3168 3167 3165 3164 3164 3163 3162 3160 3159 3157 3156 3155 3153 3151 3150 3149 3149 3148 3148 3148 3147 3147 3147 3147 3147 3147 3146 3146 3146 3146 3147 3147 3147 3147 3148 3147 3147 3145 3143 3143 3144 3144 3144 3143 3142
3166 3165 3164 3163 3162 3161 3160 3159 3157 3156 3155 3153 3151 3150 3148 3149 3151 3147 3146 3146 3146 3145 3145 3145 3145 3145 3145 3144 3144 3144 3145 3145 3145 3144 3143 3143 3141 3140 3139 3139 3139 3139 3138 3139 3139
3165 3164 3163 3161 3160 3159 3158 3156 3155 3153 3152 3151 3149 3148 3147 3148 3147 3146 3145 3144 3144 3144 3144 3143 3143 3142 3142 3142 3142 3141 3141 3141 3140 3140 3138 3137 3136 3135 3134 3135 3134 3133 3132 3133 3132
3164 3162 3161 3159 3158 3157 3155 3154 3152 3150 3148 3147 3145 3144 3144 3145 3144 3143 3143 3143 3143 3143 3142 3142 3141 3141 3140 3140 3139 3139 3138 3138 3137 3135 3133 3132 3131 3130 3131 3128 3128 3128 3128 3128 3126
3162 3161 3159 3158 3156 3154 3152 3150 3149 3147 3145 3144 3142 3141 3141 3142 3141 3141 3141 3141 3141 3141 3140 3140 3140 3140 3138 3138 3136 3135 3134 3134 3134 3132 3129 3128 3125 3125 3124 3124 3122 3123 3123 3122 3119
3161 3159 3157 3156 3154 3152 3150 3148 3146 3144 3142 3141 3140 3139 3139 3139 3139 3139 3140 3140 3140 3139 3139 3138 3137 3137 3135 3135 3133 3132 3131 3130 3130 3128 3126 3126 3119 3122 3120 3119 3117 3119 3119 3118 3114
3159 3157 3155 3154 3152 3151 3149 3147 3145 3143 3141 3139 3139 3138 3138 3138 3138 3137 3137 3137 3137 3136 3136 3135 3134 3134 3133 3131 3130 3129 3128 3127 3126 3126 3124 3123 3116 3119 3119 3116 3114 3113 3113 3113 3105
3158 3156 3154 3153 3151 3149 3148 3145 3144 3143 3141 3138 3137 3138 3137 3136 3135 3134 3134 3133 3133 3132 3133 3132 3132 3131 3132 3130 3129 3127 3124 3123 3124 3125 3123 3117 3109 3111 3113 3111 3110 3109 3108 3104 3098
3158 3156 3154 3152 3150 3148 3149 3147 3146 3143 3139 3137 3136 3134 3133 3133 3131 3131 3130 3131 3130 3130 3129 3128 3129 3129 3129 3129 3127 3126 3123 3119 3118 3119 3114 3110 3103 3106 3107 3106 3104 3103 3101 3094 3090
3157 3155 3153 3151 3149 3147 3145 3143 3141 3141 3136 3133 3132 3131 3130 3130 3131 3129 3130 3130 3129 3128 3128 3128 3125 3125 3124 3123 3122 3121 3117 3111 3105 3108 3108 3103 3092 3099 3100 3099 3097 3094 3092 3086 3082
3155 3153 3151 3149 3147 3145 3142 3141 3139 3136 3135 3132 3131 3130 3130 3130 3129 3129 3129 3128 3127 3126 3126 3124 3124 3123 3122 3119 3116 3114 3112 3107 3105 3100 3099 3094 3079 3088 3091 3091 3088 3084 3083 3079 3074
3153 3151 3149 3147 3148 3143 3140 3137 3136 3133 3131 3132 3130 3130 3129 3128 3129 3128 3127 3128 3127 3124 3122 3120 3120 3118 3116 3114 3113 3105 3107 3102 3099 3096 3092 3093 3071 3080 3080 3081 3079 3075 3072 3069 3066
3151 3149 3147 3145 3145 3142 3141 3137 3134 3132 3132 3132 3130 3129 3128 3130 3128 3126 3124 3120 3119 3118 3117 3115 3114 3112 3110 3107 3107 3102 3100 3097 3094 3092 3088 3084 3085 3072 3075 3071 3073 3066 3064 3061 3059
3148 3146 3145 3143 3142 3141 3138 3136 3135 3135 3130 3130 3129 3128 3127 3126 3125 3121 3121 3118 3115 3111 3111 3110 3110 3110 3103 3101 3098 3095 3093 3090 3087 3087 3080 3079 3079 3070 3069 3070 3065 3059 3057 3056 3054
3145 3144 3142 3140 3139 3137 3135 3135 3136 3131 3133 3129 3126 3124 3124 3124 3121 3119 3117 3115 3115 3108 3104 3104 3103 3102 3099 3095 3095 3092 3091 3087 3083 3081 3076 3076 3074 3072 3068 3065 3061 3055 3051 3050 3047
3141 3140 3139 3137 3135 3134 3133 3133 3132 3131 3128 3125 3124 3123 3123 3119 3118 3115 3114 3112 3112 3109 3103 3099 3095 3099 3097 3095 3093 3090 3092 3095 3087 3082 3074 3074 3068 3065 3063 3059 3057 3053 3049 3048 3045
3137 3136 3136 3134 3132 3130 3131 3130 3129 3128 3125 3123 3122 3119 3120 3115 3115 3111 3110 3111 3108 3104 3105 3101 3094 3093 3095 3095 3096 3089 3087 3088 3083 3075 3071 3066 3064 3059 3055 3051 3050 3049 3046 3042 3041
3132 3132 3131 3129 3126 3126 3127 3129 3126 3123 3122 3121 3120 3120 3116 3114 3114 3111 3108 3108 3104 3102 3101 3099 3089 3088 3088 3090 3091 3090 3087 3081 3079 3073 3065 3058 3056 3052 3052 3051 3048 3045 3041 3042 3040
3126 3126 3125 3123 3122 3121 3122 3122 3121 3117 3119 3121 3118 3116 3115 3111 3109 3109 3108 3104 3100 3099 3098 3095 3092 3083 3083 3085 3083 3080 3080 3079 3077 3072 3063 3059 3054 3050 3048 3049 3048 3047 3044 3040 3036
3120 3120 3120 3118 3121 3116 3116 3117 3118 3115 3115 3114 3113 3111 3110 3108 3105 3105 3104 3101 3098 3096 3093 3090 3087 3082 3080 3078 3079 3077 3074 3074 3072 3067 3062 3062 3054 3051 3046 3046 3047 3043 3043 3038 3035
3115 3113 3113 3112 3113 3113 3113 3112 3110 3110 3110 3110 3111 3108 3106 3105 3104 3100 3099 3098 3095 3092 3090 3086 3083 3081 3076 3075 3075 3073 3070 3069 3068 3063 3057 3058 3053 3048 3046 3044 3043 3043 3039 3035 3032
3112 3109 3108 3106 3106 3108 3109 3109 3107 3105 3104 3105 3103 3102 3101 3100 3101 3096 3094 3092 3091 3087 3085 3083 3080 3080 3078 3072 3071 3065 3061 3061 3062 3056 3052 3048 3045 3044 3043 3040 3040 3039 3034 3031 3027
3106 3102 3103 3103 3102 3103 3103 3103 3102 3100 3100 3099 3097 3098 3097 3094 3091 3090 3089 3085 3085 3085 3080 3079 3074 3073 3068 3066 3064 3060 3056 3053 3052 3048 3046 3040 3039 3037 3038 3036 3033 3032 3030 3027 3024
3102 3100 3097 3098 3097 3097 3097 3097 3096 3095 3094 3093 3094 3093 3094 3091 3090 3084 3082 3081 3078 3077 3076 3073 3068 3067 3059 3060 3056 3051 3049 3046 3044 3041 3038 3035 3030 3033 3033 3031 3029 3028 3025 3023 3021
3096 3094 3094 3092 3092 3093 3092 3091 3090 3090 3090 3090 3088 3087 3085 3085 3082 3079 3076 3074 3071 3069 3067 3067 3064 3062 3052 3055 3051 3046 3043 3042 3039 3037 3034 3031 3030 3028 3027 3026 3025 3023 3021 3019 3017
Wind_Speed
11 11 11 11 11 11 11 11 11 12 12 11 11 11 10 10 9 10 9 7 6 5 6 6 5 3 2 2 2 4 3 3 4 4 5 14 12 13 14 8 15 14 12 15 17
13 12 12 12 12 12 12 12 12 12 12 13 12 12 12 12 11 11 7 5 7 7 7 6 4 5 6 6 5 5 4 5 8 11 12 16 20 19 17 16 14 13 12 16 21
12 13 13 14 13 12 12 12 13 13 13 14 13 13 13 13 11 5 6 9 11 10 8 8 8 9 11 9 8 5 3 10 12 15 16 17 18 20 21 20 16 17 20 22 24
13 13 13 13 14 14 14 14 14 15 15 15 15 14 14 13 8 10 10 9 9 8 7 8 9 9 7 6 8 10 8 11 11 14 18 17 19 20 21 20 19 19 23 22 23
14 14 14 15 15 15 15 15 15 15 15 15 15 15 15 12 10 8 9 8 7 6 6 6 7 8 6 7 10 15 11 10 16 18 21 21 20 21 20 17 18 20 24 20 19
16 17 17 17 17 16 16 16 16 16 16 15 14 14 14 13 7 9 8 7 7 7 7 8 9 10 10 9 12 14 16 16 21 22 21 20 17 20 13 11 16 15 16 14 12
16 17 17 17 18 18 18 17 16 16 15 13 12 11 10 10 9 8 9 9 8 7 7 7 9 9 13 13 14 16 21 17 10 14 17 16 21 23 21 16 20 16 15 15 18
16 16 17 17 17 17 17 16 14 12 11 10 11 11 9 7 6 7 7 7 8 7 7 9 11 12 13 15 14 16 11 14 18 14 17 17 29 16 15 17 16 13 16 18 25
15 15 15 14 14 14 14 14 13 11 10 11 11 10 4 6 9 10 11 12 10 9 10 11 12 12 12 11 10 6 13 16 20 14 17 19 32 25 24 24 20 20 21 22 33
17 16 15 13 12 13 13 14 15 10 13 12 6 9 8 10 11 11 10 11 13 13 13 13 11 8 7 8 8 16 25 26 25 27 30 36 42 34 29 25 23 28 32 35 35
18 18 17 16 15 15 13 12 11 9 13 13 12 11 10 11 12 12 12 11 10 10 10 10 15 15 13 11 18 24 28 32 35 35 32 34 36 32 28 26 32 33 28 32 38
18 17 17 17 17 16 18 18 18 17 18 14 13 12 9 9 6 6 8 8 8 10 13 12 17 10 12 15 23 27 32 39 45 32 27 35 44 37 36 37 35 33 35 39 39
18 17 17 15 16 17 16 19 20 22 18 10 10 7 8 6 5 7 8 9 14 19 19 21 26 16 18 26 27 28 30 32 33 34 32 35 47 35 28 22 24 34 30 39 42
17 16 16 16 16 18 20 21 23 23 6 5 7 4 6 5 3 11 13 19 22 25 28 21 17 14 17 29 26 34 25 27 32 33 26 27 29 39 40 42 34 31 34 40 41
17 15 17 17 18 19 21 22 23 18 4 8 6 4 8 9 12 15 27 33 35 35 29 24 22 21 24 21 21 31 30 30 32 34 38 37 23 41 37 35 29 28 34 37 36
18 16 15 17 18 18 21 23 22 7 2 4 8 11 14 14 14 27 33 34 32 28 27 24 20 18 21 22 16 22 25 23 25 22 11 17 20 13 12 14 13 22 27 31 30
17 17 17 17 17 19 20 20 9 1 4 5 10 12 14 19 30 33 23 23 22 21 13 29 22 10 15 20 19 15 29 11 7 2 8 15 28 28 38 21 21 26 31 36 36
18 18 19 19 21 21 20 19 4 6 10 13 16 19 21 26 16 11 16 16 13 20 27 17 9 7 14 23 24 30 11 6 8 11 17 29 13 29 22 16 12 11 16 24 31
19 20 20 22 23 23 20 9 3 9 15 19 22 26 6 10 12 14 11 14 10 12 10 17 14 17 26 30 26 25 23 19 24 30 18 18 27 7 15 18 14 6 6 10 13
22 23 24 26 24 20 19 8 12 16 20 20 20 12 14 17 17 19 17 13 15 13 17 14 29 18 17 23 19 16 20 21 16 4 5 7 13 8 15 16 20 13 13 25 30
26 25 25 22 22 24 14 5 10 20 21 18 19 19 20 23 12 14 9 18 23 19 16 22 21 32 33 15 20 23 24 23 17 10 3 4 6 9 9 7 14 14 17 20 24
28 26 23 25 22 17 9 10 14 19 20 20 13 13 13 16 20 20 14 15 22 24 25 15 12 23 30 33 22 20 14 11 8 8 13 15 14 17 5 4 2 12 20 22 24
26 28 26 22 15 13 11 13 19 19 19 16 12 14 21 20 12 6 9 16 21 28 21 24 8 13 20 20 13 25 33 34 29 24 22 12 12 13 19 19 14 16 24 22 26
27 22 24 20 10 8 12 14 18 20 20 18 21 21 18 16 14 14 20 20 22 21 19 18 18 23 18 27 29 36 36 35 30 18 25 25 30 36 30 27 23 25 19 22 25
22 20 18 16 19 15 17 18 19 19 18 15 14 10 12 16 22 23 23 27 24 25 21 18 23 27 31 31 31 34 35 33 31 35 29 37 32 30 24 21 20 20 21 23 22
19 19 21 19 19 18 16 17 17 13 14 15 15 17 20 24 22 27 29 26 28 27 19 20 30 28 40 36 29 26 27 28 30 32 32 32 36 29 25 18 14 16 21 25 25
20 21 20 23 18 19 18 14 13 14 19 14 16 20 24 25 27 29 31 34 35 37 37 36 32 27 35 29 23 22 22 16 13 17 17 25 25 23 18 17 17 19 17 21 20
Wind_Direction
344 343 341 337 336 337 339 337 337 335 337 336 331 330 330 325 330 331 326 315 315 326 320 311 300 307 338 315 291 275 255 162 273 220 223 265 274 283 280 259 244 250 248 267 271
340 337 334 332 331 331 330 331 331 331 332 329 325 326 324 321 331 326 328 4 12 354 331 316 299 306 307 307 298 278 256 228 249 254 254 270 286 287 273 274 260 247 238 252 264
338 332 330 327 324 324 326 327 326 325 324 323 326 331 328 327 339 12 359 339 335 333 324 315 316 322 321 324 316 306 297 256 264 277 278 277 276 276 279 279 281 250 256 248 251
336 332 327 322 322 325 326 324 323 320 321 324 325 328 327 334 341 327 331 333 330 323 314 305 306 309 316 328 310 305 313 276 282 287 293 291 285 281 279 283 277 270 268 269 256
330 327 325 322 322 322 322 322 322 319 320 323 321 321 318 325 331 331 335 336 331 321 308 301 297 306 315 302 288 296 294 279 289 292 291 290 291 293 300 296 276 266 269 277 272
329 325 322 320 320 319 319 319 318 317 318 318 314 313 310 312 317 320 326 326 321 311 305 301 302 308 296 293 283 278 291 301 300 299 290 296 309 305 324 290 285 279 277 276 282
328 326 325 323 320 318 318 320 323 322 322 323 320 315 311 314 314 318 321 320 319 313 310 309 303 304 305 304 298 307 307 317 349 344 317 318 289 311 300 278 279 283 253 274 266
341 337 335 334 333 331 330 333 341 339 337 338 334 329 331 351 7 12 8 353 335 323 313 304 301 299 298 300 297 306 306 332 335 334 323 288 289 306 304 301 281 269 266 249 250
355 354 349 351 349 347 345 342 355 350 353 348 337 348 16 3 346 327 321 316 312 306 298 298 298 300 300 307 318 340 307 291 299 298 304 295 295 294 292 295 279 273 278 276 269
351 353 354 357 358 355 352 354 350 351 344 338 349 338 330 323 315 309 314 305 300 302 305 298 298 298 321 313 293 301 296 292 290 294 293 288 285 286 287 285 271 261 273 270 258
351 354 353 350 352 354 354 351 340 352 350 341 327 322 318 316 311 317 312 307 308 319 327 327 312 314 320 293 285 286 286 290 293 303 298 293 287 289 287 279 276 286 272 260 256
346 349 351 351 348 357 351 347 1 353 344 334 330 335 331 326 335 356 3 6 1 357 335 314 300 322 296 292 288 289 290 295 301 306 298 293 284 284 281 283 286 282 268 257 261
336 341 340 346 343 346 348 349 351 352 344 335 359 30 39 15 4 4 350 344 330 326 325 310 309 298 269 283 291 288 287 294 292 297 288 291 286 289 288 294 286 291 270 250 249
328 330 332 337 339 341 345 348 352 348 328 345 356 348 347 1 317 341 324 315 319 315 314 307 309 300 280 293 298 295 296 285 289 301 303 298 296 294 298 300 288 270 255 247 238
323 326 327 333 340 342 341 346 349 347 10 313 337 341 318 320 315 320 312 308 304 306 305 300 303 311 312 308 303 294 290 289 289 293 297 289 277 288 302 302 287 257 241 236 238
318 322 327 330 332 336 339 342 341 340 293 283 286 292 292 290 309 312 310 301 302 304 298 303 304 303 289 303 293 283 294 300 295 291 272 295 306 323 331 319 254 221 227 234 241
315 321 323 323 327 331 333 334 335 260 311 267 279 279 284 300 303 303 296 294 308 314 299 302 316 256 278 296 314 318 325 323 305 259 262 304 311 291 297 281 258 239 231 241 245
313 318 321 322 324 325 326 329 267 250 258 256 272 282 300 307 310 309 307 316 315 291 291 312 308 269 308 329 325 323 329 272 281 293 293 300 278 299 269 249 204 217 236 245 258
312 315 317 317 319 319 326 336 249 257 261 274 281 301 290 257 300 291 294 306 313 308 306 308 275 265 287 294 311 312 301 310 287 284 287 273 278 208 238 214 200 211 239 246 266
310 312 315 317 317 320 323 314 267 258 267 284 298 283 283 287 293 295 301 272 291 299 300 286 295 303 297 308 314 292 302 309 286 303 258 260 268 279 229 236 240 255 296 325 323
310 311 312 312 313 315 319 227 250 271 283 290 287 276 275 296 283 290 279 280 282 286 301 304 301 295 307 318 319 311 296 294 283 251 291 301 257 303 303 327 356 352 350 332 325
308 309 308 307 312 307 297 277 268 271 283 291 291 285 282 285 290 292 271 263 293 302 315 313 297 293 300 307 308 294 298 301 289 278 271 286 289 290 176 104 336 320 321 311 312
306 306 306 309 307 296 261 261 279 292 296 296 286 274 286 291 303 278 270 280 294 308 300 305 298 310 313 314 291 304 297 300 300 284 262 258 276 273 278 273 313 315 311 308 317
305 302 307 310 314 315 300 285 271 290 288 289 287 290 292 284 264 273 279 289 290 292 303 302 290 294 269 283 300 299 302 295 288 264 273 260 278 289 286 294 304 303 294 309 320
303 303 302 294 300 302 302 295 296 294 290 292 297 295 295 287 283 286 282 282 277 279 289 291 292 298 293 292 299 299 297 296 285 281 264 285 288 294 303 313 291 283 294 307 315
305 306 303 302 304 302 302 303 300 292 287 288 279 275 275 274 279 291 291 289 291 291 284 289 290 293 292 298 299 303 297 291 284 282 282 285 286 298 308 289 271 283 296 306 308
304 299 298 300 303 302 303 295 283 285 288 282 283 281 283 283 278 276 272 276 282 287 286 284 280 280 284 292 293 291 301 305 293 295 295 279 298 303 283 274 282 296 298 297 303